Location: Bottom School (historical)
(37.9078°N, 89.3593°W)
Time: 02:48:38
(UTC+00:00)

Cosmos 1570 Rocket - Pass Details

Date: 11 July 2022
Orbit: 762 x 788 km, 74.1° (Epoch: 13 August)

Event Time Altitude Azimuth Distance (km) Brightness Sun altitude
Exits shadow 07:07:55 76° 8° (N) 793 4.0 -28.1°
Drops below altitude 10° 07:12:46 10° 18° (NNE) 2,320 7.5 -27.8°
Sets 07:15:10 0° 18° (NNE) 3,255 8.5 -27.6°
